Whiting Fld NAS, FL

4:06 PM CST on November 18, 2019 (GMT -0600)
Whiting Field Naval Air Station (North)

Weather History for KNSE - September, 2019

Change the Weather History Date:

Saturday, September 21, 2019

  Actual Average Record
Temperature  
Mean Temperature 78 °F -  
Max Temperature 91 °F 82 °F 97 °F (1997)
Min Temperature 64 °F 66 °F 55 °F (2006)
Cooling Degree Days 14    
Growing Degree Days 28 (Base 50)    
Moisture  
Dew Point 64 °F    
Average Humidity 69    
Maximum Humidity 97    
Minimum Humidity 35    
Precipitation  
Precipitation 0.00 in - - ()
Sea Level Pressure  
Sea Level Pressure 30.12 in    
Wind  
Wind Speed 7 mph (East)    
Max Wind Speed 13 mph    
Max Gust Speed 20 mph    
Visibility 10 miles    
Events      
Averages and records for this station are not official NWS values.
T = Trace of Precipitation, MM = Missing Value Source: NWS Daily Summary

Daily Weather History Graph

Daily Weather History Graph

Search for Another Location

Airport or City:

Astronomy

Sep. 21, 2019 Rise Set
Actual Time 6:35 AM CDT 6:46 PM CDT
Civil Twilight 6:11 AM CDT 7:10 PM CDT
Nautical Twilight 5:43 AM CDT 7:38 PM CDT
Astronomical Twilight 5:15 AM CDT 8:06 PM CDT
Moon 11:49 PM CDT (9/21) 1:15 PM CDT (9/21)
Length of Visible Light 12h 58m
Length of Day
12h 10m
Waning Gibbous, 54% of the Moon is Illuminated
Sep 21
Waning Gibbous
Sep 21
Last Quarter
Sep 28
New
Oct 5
First Quarter
Oct 13
Full

Hourly Weather History & Observations

Time (CDT) Temp. Heat Index Dew Point Humidity Pressure Visibility Wind Dir Wind Speed Gust Speed Precip Events Conditions
12:56 AM 66.9 °F - 64.0 °F 90% 30.12 in 10.0 mi North 4.6 mph - N/A   Clear
1:56 AM 66.9 °F - 63.0 °F 87% 30.11 in 10.0 mi ENE 5.8 mph - N/A   Clear
2:56 AM 68.0 °F - 62.1 °F 81% 30.11 in 10.0 mi East 5.8 mph - N/A   Clear
3:56 AM 68.0 °F - 62.1 °F 81% 30.12 in 10.0 mi ENE 5.8 mph - N/A   Clear
4:56 AM 68.0 °F - 63.0 °F 84% 30.13 in 10.0 mi East 6.9 mph - N/A   Partly Cloudy
5:56 AM 69.1 °F - 64.0 °F 84% 30.14 in 10.0 mi East 6.9 mph - N/A   Scattered Clouds
6:56 AM 68.0 °F - 64.0 °F 87% 30.15 in 10.0 mi ENE 5.8 mph - N/A   Partly Cloudy
7:56 AM 72.0 °F - 66.0 °F 81% 30.17 in 10.0 mi East 8.1 mph - N/A   Clear
8:56 AM 77.0 °F - 66.9 °F 71% 30.19 in 10.0 mi East 11.5 mph - N/A   Clear
9:56 AM 82.0 °F 84.5 °F 66.9 °F 60% 30.19 in 10.0 mi East 12.7 mph 17.3 mph N/A   Clear
10:56 AM 84.9 °F 86.6 °F 64.9 °F 51% 30.17 in 10.0 mi ESE 8.1 mph 18.4 mph N/A   Partly Cloudy
11:56 AM 88.0 °F 88.7 °F 63.0 °F 43% 30.16 in 10.0 mi East 10.4 mph - N/A   Scattered Clouds
12:56 PM 90.0 °F 90.0 °F 61.0 °F 38% 30.14 in 10.0 mi East 10.4 mph 19.6 mph N/A   Mostly Cloudy
1:56 PM 90.0 °F 90.3 °F 62.1 °F 39% 30.11 in 10.0 mi ESE 11.5 mph 16.1 mph N/A   Scattered Clouds
2:56 PM 88.0 °F 87.9 °F 61.0 °F 40% 30.09 in 10.0 mi ENE 9.2 mph 16.1 mph N/A   Mostly Cloudy
3:56 PM 91.0 °F 90.5 °F 60.1 °F 35% 30.07 in 10.0 mi Variable 6.9 mph - N/A   Scattered Clouds
4:56 PM 86.0 °F 88.8 °F 66.9 °F 53% 30.07 in 10.0 mi South 9.2 mph - N/A   Scattered Clouds
5:56 PM 82.9 °F 84.6 °F 64.9 °F 54% 30.08 in 10.0 mi SSW 8.1 mph - N/A   Scattered Clouds
6:56 PM 79.0 °F - 64.9 °F 62% 30.09 in 10.0 mi SSW 6.9 mph - N/A   Partly Cloudy
7:56 PM 77.0 °F - 64.9 °F 66% 30.10 in 10.0 mi South 5.8 mph - N/A   Partly Cloudy
8:56 PM 73.0 °F - 66.0 °F 79% 30.11 in 10.0 mi SE 3.5 mph - N/A   Clear
9:56 PM 69.1 °F - 66.0 °F 90% 30.12 in 10.0 mi Calm Calm - N/A   Clear
10:56 PM 66.0 °F - 64.0 °F 93% 30.12 in 10.0 mi Calm Calm - N/A   Clear
11:56 PM 64.9 °F - 64.0 °F 97% 30.10 in 10.0 mi North 3.5 mph - N/A   Partly Cloudy